Погода Красная Поляна

Погода Красная Поляна : погода сейчас, прогноз погоды и архив. Всё, что Вы хотите узнать о погоде Красная Поляна!

Поиск расширенной информации на нашем сайте:

Другие новости

Новости СМИ2

Главная страница сайта

Новости сайта

03.07.2017

Напоминаем, что на нашем специализированном сайте Метеоцентр.Азия вы можете получить высокодетализированные автоматические прогнозы погоды по пунктам России, СНГ и мира в авиационном формате (включающие направление и скорость ветра, видимость, явления погоды, количество и форму облачности, нижнюю и верхнюю границу облачности).


Погода Красная Поляна - сегодня

Время (UTC), дата Ветер
(°,м/с) 
Видим.   Явления Облачность Т
(°С)
Тd
(°С)
f(%) Тe
(°С)
Pmin
(гПа)
dP
(гПа)
Po
(мм)
O2
(г/м3)
Тmin Tmax R s Состояние
почвы
00 14.04.18 тихо ()   20000 м    3/0 верхняя 
[Cs]
+6.7 +5.6 93 +7  1018.3  0.2  713  280           
06 14.04.18 230 (ЮЗ) 20000 м    1/1 1500 м 
[Cu hum]
+11.7 +7.4 75 +12  1018.4  0.5  714  275           
09 14.04.18 230 (ЮЗ) 20000 м    4/4 1500 м 
[Cu Sc]
+16.3 +7.8 57 +16  1016.4  -0.8  714  270           
18 14.04.18 020 (С) 20000 м    ясно 
+9.6 +4.8 72 +10  1019.7  1.1  715  277           
21 14.04.18 020 (С) 20000 м    ясно 
+7.3 +0.7 63 +7  1020.5  0.2  715  280           
00 15.04.18 010 (С) 20000 м    ясно 
+5.4 -1.3 62 +5  1020.8  -0.2  715  282           
06 15.04.18 200 (Ю) 19000 м    ясно 
+10.7 -2.7 39 +12  1020.8  0.8  716  278           
09 15.04.18 230 (ЮЗ) 20000 м    ясно 
+15.8 +1.5 38 +16  1018.7  -0.8  715  272           
06 16.04.18 210 (ЮЗ) 20000 м    3/3 1000 м 
[Cu hum]
+11.3 +2.6 55 +12  1025  0.5  719  278           
09 16.04.18 230 (ЮЗ) 20000 м    3/3 1000 м средняя 
[Cu hum|Ac cuf]
+13.6 +3.9 52 +13  1022.3  -2  717  275           
00 17.04.18 050 (СВ) 20000 м    ясно 
+5.4 +2.9 84 +6  1022.9  -0.2  716  282           
03 17.04.18 050 (СВ) 20000 м    4/0 верхняя 
[Ci fib]
+3.4 +2.1 91 +4  1023.7  0.3  716  285  +3.3        влажная 
06 17.04.18 210 (ЮЗ) 20000 м    8/1 1500 м средняя, верхняя 
[Sc|Ac As|Ci fib]
+10.2 +1.3 54 +11  1021.8  -0.2  716  278           
09 17.04.18 230 (ЮЗ) 20000 м    10/0 средняя 
[Ac und]
+15.7 +3.2 43 +16  1019.2  -1.2  715  272           
12 17.04.18 230 (ЮЗ) 20000 м    3/1 1500 м верхняя 
[Cu hum|Ci fib]
+16.4 +7.6 56 +16  1018.2  -0.7  715  270           
18 17.04.18 360 (С) 20000 м    3/1 1500 м верхняя 
[Sc|Ci sp]
+10.5 +6.8 78 +12  1020.7  1.1  716  276           
21 17.04.18 010 (С) 20000 м    3/0 верхняя 
[Cs]
+8.3 +4.9 79 +9  1022.3  0.9  716  279           
00 18.04.18 010 (С) 20000 м    1/0 верхняя 
[Cs]
+6.3 +3.3 81 +7  1023.3  0.5  717  282           
06 18.04.18 710 () 11000 м    4/0 <0100 м верхняя 
[Cs]
+11.9 +3.2 55 +10  1022.5  0.2  717  276           
09 18.04.18 250 (З) 20000 м    10/0 верхняя 
[Cs]
+18.2 +4.4 40 +19  1019.7  -1.2  716  270           
12 18.04.18 240 (ЮЗ) 20000 м    10/0 верхняя 
[Cs]
+18.6 +5.4 42 +20  1018.7  -0.8  716  269           
18 18.04.18 030 (СВ) 19000 м    10/0 верхняя 
[Cs]
+12.4 +5.3 62 +14  1020.5  0.6  716  275           
21 18.04.18 тихо ()   20000 м    4/0 верхняя 
[Cs]
+9.6 +4.6 71 +10  1020.4  -0.7  715  278           
00 19.04.18 070 (В) 20000 м    4/0 средняя 
[Ac As]
+8.5 +4.5 76 +10  1019.6  -1  714  278           
06 19.04.18 тихо ()   20000 м    10/4 1500 м средняя 
[Sc|Ac As]
+11.6 +4.6 62 +12  1017.3  -1.2  713  275           
Время (UTC), дата Ветер
(°,м/с) 
Видим.   Явления Облачность Т
(°С)
Тd
(°С)
f(%) Тe
(°С)
Pmin
(гПа)
dP
(гПа)
Po
(мм)
O2
(г/м3)
Тmin Tmax R s Состояние
почвы

Для получения пояснительной информации подведите курсор к названию столбца.

ПОГОДА Красная Поляна - архив

Всё, что Вы хотите узнать о погоде Красная Поляна - удобно и подробно!

Выберите нужную дату (начиная с 1 января 2015* года) и нажмите кнопку "Найти".
Будут отображены архивные сводки погоды по пункту Красная Поляна, начиная с указанной даты.


Отображать данные в формате CSV (для использования в таблицах Excel)


Внимание! Наш архив погоды предназначен исключительно для личного некоммерческого использования в познавательных целях. Если Вам необходимы официальные справки о состоянии погоды (для производственных, юридических, коммерческих и т.п. целей), обращайтесь в органы Росгидромета.

*Примечание: данная дата относится к архиву по метеостанциям СССР (Россия, СНГ, Балтия).
Архив по метеостанциям Зарубежной Европы и Азии (кроме Китая) хранится 10 дней, по другим регионам земного шара (Китай, Африка, Америка, Австралия, Океания) - 1 день.

Красная Поляна - район местоположения метеостанции


Название, широта, долгота, высота метеостанции:
Красная Поляна 43.7°ш. 40.2°д. 568 м над ур. моря [Российская Федерация]

Дополнительная информация

В oтличие oт бoльшинства пoгoдных сайтoв мы публикуем пoдрoбную метеoинфoрмацию в детальнoм прoфессиoнальнoм фoрмате.

Характеристики температуры и влажнoсти вoздуха измеряются на высoте 2 м в тени вдали oт зданий и деревьев.
Скoрoсть ветра измеряется на высoте 10 м (на урoвне рoста челoвека скoрoсть ветра ниже в 1.5-2 раза). Если метеoстанция нахoдится в гoрoде или в лесу, тo скoрoсть ветра занижена на 2-4 м/с пo сравнению с oткрытым местoм. Скoрoсть ветра над акватoриями крупных рек и oзёр, а также на вершинах хoлмoв на 2-5 м/с выше, чем в oбычных услoвиях.
Атмoсфернoе давление в разных тoчках местнoсти мoжет значительнo oтличаться oт давления на метеoстанции, в зависимoсти oт услoвий рельефа (при пoдъёме на 10 м давление пoнижается примернo на 1 мм рт.ст.).